LU3GHF-13 Weather Reports


time (UTC)temp
C
wind
direction
speed
KPH
gust
KPH
rain 1hr
cm
rain 24hr
cm
rain mn
cm
humidity
%
barometer
mb
20260509122954 13 0.0 0.0 0.00 0.00 0.00 69 1017.1
20260509120835 14 0.0 0.0 0.00 0.00 0.00 67 1016.9
20260509113803 13 0.0 0.0 0.00 0.00 0.00 66 1016.3
20260509111652 13 0.0 0.0 0.00 0.00 0.00 65 1016.1
20260509110637 13 0.0 0.0 0.00 0.00 0.00 64 1016.0
20260509104613 13 0.0 0.0 0.00 0.00 0.00 61 1015.5
20260509103531 13 0.0 0.0 0.00 0.00 0.00 61 1015.3
20260509102439 14 0.0 0.0 0.00 0.00 0.00 60 1015.0
20260509101430 14 0.0 0.0 0.00 0.00 0.00 58 1014.6
20260509100419 13 0.0 0.0 0.00 0.00 0.00 60 1014.4
20260509095415 14 0.0 0.0 0.00 0.00 0.00 62 1014.1
20260509094337 14 0.0 0.0 0.00 0.00 0.00 61 1013.6
20260509093238 14 0.0 0.0 0.00 0.00 0.00 61 1013.3
20260509092144 14 0.0 0.0 0.00 0.00 0.00 60 1013.0
20260509091102 14 0.0 0.0 0.00 0.00 0.00 60 1012.7
20260509090030 14 0.0 0.0 0.00 0.00 0.00 60 1012.4
20260509085021 14 0.0 0.0 0.00 0.00 0.00 59 1012.2
20260509082920 14 0.0 0.0 0.00 0.00 0.00 60 1011.9
20260509081847 14 0.0 0.0 0.00 0.00 0.00 60 1011.6
20260509080758 14 0.0 0.0 0.00 0.00 0.00 59 1011.4
20260509075722 14 0.0 0.0 0.00 0.00 0.00 58 1011.3
20260509074717 14 0.0 0.0 0.00 0.00 0.00 57 1011.3
20260509073659 14 0.0 0.0 0.00 0.00 0.00 57 1011.1
20260509072639 14 0.0 0.0 0.00 0.00 0.00 57 1011.1
20260509071618 15 0.0 0.0 0.00 0.00 0.00 57 1011.0
20260509065534 14 0.0 0.0 0.00 0.00 0.00 57 1010.7
20260509064522 15 0.0 0.0 0.00 0.00 0.00 56 1010.6
20260509063444 15 0.0 0.0 0.00 0.00 0.00 57 1010.7
20260509062418 15 0.0 0.0 0.00 0.00 0.00 58 1010.7
20260509061321 15 0.0 0.0 0.00 0.00 0.00 56 1010.6
20260509060236 14 0.0 0.0 0.00 0.00 0.00 59 1010.8
20260509055155 15 0.0 0.0 0.00 0.00 0.00 59 1010.6
20260509054057 15 0.0 0.0 0.00 0.00 0.00 59 1010.6
20260509053009 15 0.0 0.0 0.00 0.00 0.00 60 1010.7
20260509050858 14 0.0 0.0 0.00 0.00 0.00 61 1010.7
20260509045832 14 0.0 0.0 0.00 0.00 0.00 61 1010.6
20260509044743 14 0.0 0.0 0.00 0.00 0.00 63 1010.5
20260509043655 14 0.0 0.0 0.00 0.00 0.00 64 1010.6
20260509042607 14 0.0 0.0 0.00 0.00 0.00 64 1010.7
20260509041537 15 0.0 0.0 0.00 0.00 0.00 62 1010.8
20260509040442 14 0.0 0.0 0.00 0.00 0.00 61 1010.9
20260509035359 14 0.0 0.0 0.00 0.00 0.00 59 1010.5
20260509034342 14 0.0 0.0 0.00 0.00 0.00 61 1010.5
20260509033300 15 0.0 0.0 0.00 0.00 0.00 61 1010.8
20260509032255 14 0.0 0.0 0.00 0.00 0.00 61 1011.0
20260509031158 15 0.0 0.0 0.00 0.00 0.00 60 1010.8
20260509025041 15 0.0 0.0 0.00 0.00 0.00 58 1010.7
20260509024010 15 0.0 0.0 0.00 0.00 0.00 57 1010.1
20260509022936 15 0.0 0.0 0.00 0.00 0.00 57 1010.2
20260509021909 15 0.0 0.0 0.00 0.00 0.00 56 1010.2
20260509020855 15 0.0 0.0 0.00 0.00 0.00 55 1009.8
20260509015836 15 0.0 0.0 0.00 0.00 0.00 55 1009.8
20260508233244 16 0.0 0.0 0.00 0.00 0.00 52 1008.1
20260508232209 17 0.0 0.0 0.00 0.00 0.00 50 1007.9
20260508225012 17 0.0 0.0 0.00 0.00 0.00 47 1007.6
20260508222917 17 0.0 0.0 0.00 0.00 0.00 47 1006.9
20260508215722 17 0.0 0.0 0.00 0.00 0.00 44 1006.5
20260508211619 17 0.0 0.0 0.00 0.00 0.00 40 1006.9
20260508210609 18 0.0 0.0 0.00 0.00 0.00 40 1006.9
20260508205513 18 0.0 0.0 0.00 0.00 0.00 39 1006.7
20260508204437 18 0.0 0.0 0.00 0.00 0.00 39 1006.7
20260508203401 18 0.0 0.0 0.00 0.00 0.00 39 1006.6
20260508202312 18 0.0 0.0 0.00 0.00 0.00 39 1006.6
20260508200244 18 0.0 0.0 0.00 0.00 0.00 40 1006.7
20260508194132 19 0.0 0.0 0.00 0.00 0.00 41 1006.5
20260508192007 20 0.0 0.0 0.00 0.00 0.00 38 1006.5
20260508185822 21 0.0 0.0 0.00 0.00 0.00 36 1006.7
20260508184819 22 0.0 0.0 0.00 0.00 0.00 32 1006.6
20260508183746 23 0.0 0.0 0.00 0.00 0.00 31 1006.7
20260508182700 23 0.0 0.0 0.00 0.00 0.00 33
20260508181650 23 0.0 0.0 0.00 0.00 0.00 36
20260508180610 20 0.0 0.0 0.00 0.00 0.00 39 1006.9
20260508175554 20 0.0 0.0 0.00 0.00 0.00 38 1006.9
20260508174526 21 0.0 0.0 0.00 0.00 0.00 36
20260508173434 21 0.0 0.0 0.00 0.00 0.00 37
20260508172420 20 0.0 0.0 0.00 0.00 0.00 37 1007.6
20260508170313 20 0.0 0.0 0.00 0.00 0.00 36 1007.9
20260508165241 20 0.0 0.0 0.00 0.00 0.00 34 1008.2
20260508164157 21 0.0 0.0 0.00 0.00 0.00 34 1008.0
20260508162057 21 0.0 0.0 0.00 0.00 0.00 30
20260508154851 20 0.0 0.0 0.00 0.00 0.00 36 1009.2
20260508152725 20 0.0 0.0 0.00 0.00 0.00 39
20260508151702 20 0.0 0.0 0.00 0.00 0.00 40 1009.4
20260508150654 19 0.0 0.0 0.00 0.00 0.00 44
20260508144630 18 0.0 0.0 0.00 0.00 0.00 44 1010.0
20260508143552 18 0.0 0.0 0.00 0.00 0.00 48 1010.0
20260508141505 17 0.0 0.0 0.00 0.00 0.00 60 1010.6
20260508140422 17 0.0 0.0 0.00 0.00 0.00 63
20260508134238 16 0.0 0.0 0.00 0.00 0.00 66 1010.8
20260508133216 16 0.0 0.0 0.00 0.00 0.00 67 1011.0
20260508132135 16 0.0 0.0 0.00 0.00 0.00 70 1010.8
20260508131042 16 0.0 0.0 0.00 0.00 0.00 72 1010.9
20260508130007 15 0.0 0.0 0.00 0.00 0.00 73 1010.9
20260508124915 15 0.0 0.0 0.00 0.00 0.00 75 1010.8